GW4746 Weather Reports


time (UTC)temp
C
wind
direction
speed
KPH
gust
KPH
rain 1hr
cm
rain 24hr
cm
rain mn
cm
humidity
%
barometer
mb
20260506124514 10 120 3.2 6.4 0.00 0.00 0.00 79 1015.4
20260506123018 10 87 1.6 4.8 0.00 0.00 0.00 79 1015.3
20260506121520 10 84 0.0 8.0 0.00 0.00 0.00 79 1014.3
20260506120027 11 287 3.2 12.9 0.00 0.00 0.00 79 1013.8
20260506114508 11 345 4.8 9.7 0.00 0.00 0.00 79 1013.4
20260506113014 11 241 1.6 11.3 0.00 0.00 0.00 79 1013.1
20260506111522 11 354 4.8 11.3 0.00 0.00 0.00 79 1013.4
20260506110024 11 318 1.6 11.3 0.00 0.00 0.00 79 1013.3
20260506104528 11 332 3.2 12.9 0.00 0.00 0.00 79 1013.1
20260506103011 11 36 1.6 8.0 0.00 0.00 0.00 80 1013.2
20260506101527 11 333 3.2 9.7 0.00 0.00 0.00 80 1013.2
20260506100022 11 18 1.6 6.4 0.00 0.00 0.00 80 1012.8
20260506094525 11 317 0.0 6.4 0.00 0.00 0.00 80 1012.4
20260506093038 11 110 0.0 4.8 0.00 0.00 0.00 81 1012.2
20260506091526 11 63 0.0 4.8 0.00 0.00 0.00 82 1012.3
20260506090015 11 98 0.0 6.4 0.00 0.00 0.00 82 1012.1
20260506084523 11 105 1.6 4.8 0.00 0.00 0.00 82 1012.1
20260506083025 11 120 0.0 4.8 0.00 0.00 0.00 81 1011.9
20260506081533 11 343 1.6 6.4 0.00 0.00 0.00 81 1012.0
20260506073037 11 20 1.6 6.4 0.00 0.00 0.00 78 1012.1
20260506071524 12 7 1.6 6.4 0.00 0.00 0.00 77 1012.0
20260506061505 13 94 3.2 12.9 0.00 0.00 0.00 74 1011.8
20260506044521 16 114 3.2 11.3 0.00 0.00 0.00 65 1010.4
20260506043014 16 103 3.2 6.4 0.00 0.00 0.00 64 1010.4
20260506041515 17 96 3.2 8.0 0.00 0.00 0.00 62 1010.4
20260506040025 17 79 0.0 4.8 0.00 0.00 0.00 61 1010.3
20260506034508 17 77 3.2 9.7 0.00 0.00 0.00 59 1010.4
20260506033008 18 79 3.2 8.0 0.00 0.00 0.00 57 1010.1
20260506031527 20 88 3.2 14.5 0.00 0.00 0.00 53 1010.0
20260506030018 21 87 1.6 8.0 0.00 0.00 0.00 51 1009.7
20260506024522 21 60 1.6 8.0 0.00 0.00 0.00 51 1009.6
20260506023028 22 122 1.6 8.0 0.00 0.00 0.00 50 1009.2
20260506021526 22 79 1.6 6.4 0.00 0.00 0.00 49 1008.8
20260506020016 22 110 1.6 8.0 0.00 0.00 0.00 48 1008.7
20260506014526 23 122 3.2 9.7 0.00 0.00 0.00 47 1008.5
20260506013023 24 99 1.6 8.0 0.00 0.00 0.00 46 1007.9
20260506011527 25 67 1.6 6.4 0.00 0.00 0.00 44 1007.5
20260506010028 25 358 1.6 8.0 0.00 0.00 0.00 43 1007.3
20260506004530 26 326 1.6 6.4 0.00 0.00 0.00 43 1007.3
20260506003038 26 69 1.6 6.4 0.00 0.00 0.00 41 1007.0
20260506001524 27 82 1.6 14.5 0.00 0.00 0.00 40 1006.5
20260506000027 27 301 1.6 8.0 0.00 0.00 0.00 39 1006.6
20260505234522 28 25 3.2 16.1 0.00 0.00 0.00 36 1006.3
20260505233018 28 6 1.6 9.7 0.00 0.00 0.00 33 1005.9
20260505231522 28 349 1.6 8.0 0.00 0.00 0.00 31 1005.7
20260505230030 29 326 6.4 14.5 0.00 0.00 0.00 31 1006.1
20260505224527 30 328 3.2 12.9 0.00 0.00 0.00 31 1006.2
20260505223015 30 84 3.2 8.0 0.00 0.00 0.00 30 1005.9
20260505221520 31 352 1.6 8.0 0.00 0.00 0.00 30 1005.6
20260505220036 31 313 3.2 12.9 0.00 0.00 0.00 29 1005.1
20260505214532 31 59 1.6 11.3 0.00 0.00 0.00 28 1005.3
20260505213028 32 356 3.2 9.7 0.00 0.00 0.00 26 1005.3
20260505211518 34 285 3.2 11.3 0.00 0.00 0.00 19 1005.3
20260505210019 33 264 1.6 11.3 0.00 0.00 0.00 20 1005.5
20260505204526 34 260 1.6 9.7 0.00 0.00 0.00 18 1005.5
20260505203024 35 255 1.6 11.3 0.00 0.00 0.00 19 1005.6
20260505201526 35 223 3.2 12.9 0.00 0.00 0.00 22 1005.5
20260505200026 33 288 3.2 8.0 0.00 0.00 0.00 23 1006.0
20260505194533 33 283 6.4 14.5 0.00 0.00 0.00 22 1006.2
20260505193037 33 288 4.8 12.9 0.00 0.00 0.00 23 1006.3
20260505191537 33 245 4.8 11.3 0.00 0.00 0.00 26 1006.3
20260505190014 32 248 3.2 12.9 0.00 0.00 0.00 29 1006.6
20260505184529 32 290 4.8 19.3 0.00 0.00 0.00 28 1006.6
20260505183027 32 296 3.2 8.0 0.00 0.00 0.00 27 1006.9
20260505181505 32 176 1.6 6.4 0.00 0.00 0.00 35 1007.1
20260505180012 31 241 1.6 6.4 0.00 0.00 0.00 38 1007.3
20260505174529 31 257 1.6 9.7 0.00 0.00 0.00 40 1007.3
20260505173021 30 266 1.6 6.4 0.00 0.00 0.00 41 1007.2
20260505171533 30 242 1.6 3.2 0.00 0.00 0.00 46 1007.4
20260505170019 29 233 1.6 6.4 0.00 0.00 0.00 48 1007.4
20260505164527 28 251 1.6 6.4 0.00 0.00 0.00 49 1007.5
20260505163020 28 281 1.6 3.2 0.00 0.00 0.00 50 1007.4
20260505161528 27 212 3.2 6.4 0.00 0.00 0.00 54 1007.5
20260505153015 26 221 1.6 8.0 0.00 0.00 0.00 59 1007.3
20260505151517 25 245 3.2 8.0 0.00 0.00 0.00 57 1007.3